Time,TemperatureF,DewpointF,PressureIn,WindDirection,WindDirectionDegrees,WindSpeedMPH,WindSpeedGustMPH,Humidity,HourlyPrecipIn,Conditions,Clouds,dailyrainin,SolarRadiationWatts/m^2,SoftwareType,DateUTC
2013-12-11 00:13:00,24.0,14.0,30.30,NNW,347,5.0,13.0,67,0.00,,,0.00,0,weatherlink.com 1.10,2013-12-11 05:13:00,
2013-12-11 00:28:00,24.5,14.0,30.30,NNW,347,5.0,12.0,64,0.00,,,0.00,0,weatherlink.com 1.10,2013-12-11 05:28:00,
2013-12-11 00:43:00,25.3,13.0,30.30,NNW,347,1.0,12.0,59,0.00,,,0.00,0,weatherlink.com 1.10,2013-12-11 05:43:00,
2013-12-11 00:58:00,24.0,14.0,30.32,NNW,347,1.0,7.0,67,0.00,,,0.00,0,weatherlink.com 1.10,2013-12-11 05:58:00,
2013-12-11 01:13:00,23.1,15.0,30.32,NNW,347,3.0,7.0,70,0.00,,,0.00,0,weatherlink.com 1.10,2013-12-11 06:13:00,
2013-12-11 01:28:00,23.1,15.0,30.33,NNW,347,1.0,4.0,70,0.00,,,0.00,0,weatherlink.com 1.10,2013-12-11 06:28:00,
2013-12-11 01:43:00,23.0,15.0,30.34,NNW,347,2.0,6.0,70,0.00,,,0.00,0,weatherlink.com 1.10,2013-12-11 06:43:00,
2013-12-11 01:58:00,24.1,14.0,30.34,NNW,347,3.0,9.0,65,0.00,,,0.00,0,weatherlink.com 1.10,2013-12-11 06:58:00,
2013-12-11 02:13:00,23.5,14.0,30.34,NNW,347,5.0,7.0,68,0.00,,,0.00,0,weatherlink.com 1.10,2013-12-11 07:13:00,
2013-12-11 02:28:00,23.6,14.0,30.36,NNW,347,4.0,10.0,67,0.00,,,0.00,0,weatherlink.com 1.10,2013-12-11 07:28:00,
2013-12-11 02:43:00,23.5,14.0,30.36,NNW,347,3.0,10.0,68,0.00,,,0.00,0,weatherlink.com 1.10,2013-12-11 07:43:00,
2013-12-11 02:59:00,23.8,14.0,30.37,NNW,347,4.0,12.0,66,0.00,,,0.00,0,weatherlink.com 1.10,2013-12-11 07:59:00,
2013-12-11 03:14:00,23.4,14.0,30.38,NNW,347,4.0,11.0,68,0.00,,,0.00,0,weatherlink.com 1.10,2013-12-11 08:14:00,
2013-12-11 03:29:00,23.1,14.0,30.38,NNW,347,9.0,12.0,68,0.00,,,0.00,0,weatherlink.com 1.10,2013-12-11 08:29:00,
2013-12-11 03:44:00,23.7,13.0,30.38,NNW,347,5.0,13.0,65,0.00,,,0.00,0,weatherlink.com 1.10,2013-12-11 08:44:00,
2013-12-11 03:59:00,23.6,13.0,30.38,NNW,347,4.0,14.0,65,0.00,,,0.00,0,weatherlink.com 1.10,2013-12-11 08:59:00,
2013-12-11 04:14:00,23.5,13.0,30.38,NNW,347,6.0,14.0,64,0.00,,,0.00,0,weatherlink.com 1.10,2013-12-11 09:14:00,
2013-12-11 04:29:00,23.7,13.0,30.39,NNW,347,10.0,13.0,63,0.00,,,0.00,0,weatherlink.com 1.10,2013-12-11 09:29:00,
2013-12-11 04:44:00,23.1,13.0,30.39,NNW,347,4.0,11.0,66,0.00,,,0.00,0,weatherlink.com 1.10,2013-12-11 09:44:00,
2013-12-11 04:59:00,23.6,13.0,30.39,NNW,347,7.0,13.0,65,0.00,,,0.00,0,weatherlink.com 1.10,2013-12-11 09:59:00,
2013-12-11 05:14:00,23.3,14.0,30.40,NNW,347,5.0,12.0,67,0.00,,,0.00,0,weatherlink.com 1.10,2013-12-11 10:14:00,
2013-12-11 05:29:00,23.4,14.0,30.40,NNW,347,6.0,11.0,66,0.00,,,0.00,0,weatherlink.com 1.10,2013-12-11 10:29:00,
2013-12-11 05:44:00,23.6,13.0,30.40,NNW,347,4.0,12.0,65,0.00,,,0.00,0,weatherlink.com 1.10,2013-12-11 10:44:00,
2013-12-11 05:59:00,23.3,14.0,30.40,NNW,347,4.0,11.0,67,0.00,,,0.00,0,weatherlink.com 1.10,2013-12-11 10:59:00,
2013-12-11 06:14:00,23.3,13.0,30.40,NNW,347,6.0,11.0,65,0.00,,,0.00,0,weatherlink.com 1.10,2013-12-11 11:14:00,
2013-12-11 06:29:00,23.9,12.0,30.41,NNW,347,7.0,12.0,62,0.00,,,0.00,0,weatherlink.com 1.10,2013-12-11 11:29:00,
2013-12-11 06:44:00,23.9,12.0,30.41,NNW,347,3.0,12.0,62,0.00,,,0.00,0,weatherlink.com 1.10,2013-12-11 11:44:00,
2013-12-11 06:59:00,23.4,12.0,30.42,NNW,347,1.0,7.0,62,0.00,,,0.00,0,weatherlink.com 1.10,2013-12-11 11:59:00,
2013-12-11 07:14:00,23.4,11.0,30.43,NNW,347,3.0,7.0,60,0.00,,,0.00,0,weatherlink.com 1.10,2013-12-11 12:14:00,
2013-12-11 07:29:00,23.7,11.0,30.43,NNW,347,4.0,8.0,59,0.00,,,0.00,0,weatherlink.com 1.10,2013-12-11 12:29:00,
2013-12-11 07:44:00,24.1,11.0,30.43,NNW,347,2.0,6.0,58,0.00,,,0.00,9,weatherlink.com 1.10,2013-12-11 12:44:00,
2013-12-11 07:59:00,24.2,11.0,30.44,NNW,347,2.0,4.0,58,0.00,,,0.00,12,weatherlink.com 1.10,2013-12-11 12:59:00,
2013-12-11 08:14:00,24.6,11.0,30.45,NNW,347,3.0,4.0,57,0.00,,,0.00,25,weatherlink.com 1.10,2013-12-11 13:14:00,
2013-12-11 08:29:00,24.7,11.0,30.46,NNW,347,3.0,9.0,56,0.00,,,0.00,62,weatherlink.com 1.10,2013-12-11 13:29:00,
2013-12-11 08:44:00,25.4,11.0,30.46,NNW,347,4.0,7.0,55,0.00,,,0.00,19,weatherlink.com 1.10,2013-12-11 13:44:00,
2013-12-11 08:59:00,26.9,10.0,30.47,NNW,347,3.0,6.0,49,0.00,,,0.00,39,weatherlink.com 1.10,2013-12-11 13:59:00,
2013-12-11 09:15:00,28.1,10.0,30.48,NNW,347,6.0,6.0,46,0.00,,,0.00,65,weatherlink.com 1.10,2013-12-11 14:15:00,
2013-12-11 09:29:00,28.4,10.0,30.47,NNW,347,4.0,7.0,46,0.00,,,0.00,197,weatherlink.com 1.10,2013-12-11 14:29:00,
2013-12-11 09:44:00,28.8,10.0,30.48,NNW,347,3.0,8.0,46,0.00,,,0.00,237,weatherlink.com 1.10,2013-12-11 14:44:00,
2013-12-11 09:59:00,29.3,11.0,30.49,NNW,347,5.0,6.0,47,0.00,,,0.00,151,weatherlink.com 1.10,2013-12-11 14:59:00,
2013-12-11 10:14:00,30.6,11.0,30.49,NNW,347,1.0,4.0,45,0.00,,,0.00,241,weatherlink.com 1.10,2013-12-11 15:14:00,
2013-12-11 10:29:00,31.6,13.0,30.49,NNW,347,2.0,4.0,46,0.00,,,0.00,248,weatherlink.com 1.10,2013-12-11 15:29:00,
2013-12-11 10:44:00,32.2,12.0,30.48,NNW,347,5.0,8.0,43,0.00,,,0.00,127,weatherlink.com 1.10,2013-12-11 15:44:00,
2013-12-11 10:59:00,33.8,12.0,30.48,NW,311,0.0,8.0,40,0.00,,,0.00,362,weatherlink.com 1.10,2013-12-11 15:59:00,
2013-12-11 11:14:00,35.5,10.0,30.47,WNW,286,4.0,9.0,35,0.00,,,0.00,366,weatherlink.com 1.10,2013-12-11 16:14:00,
2013-12-11 11:29:00,36.6,12.0,30.48,NW,310,2.0,8.0,36,0.00,,,0.00,503,weatherlink.com 1.10,2013-12-11 16:29:00,
2013-12-11 11:45:00,38.1,13.0,30.47,NW,307,4.0,10.0,35,0.00,,,0.00,520,weatherlink.com 1.10,2013-12-11 16:45:00,
2013-12-11 12:00:00,39.0,13.0,30.46,WNW,288,3.0,8.0,35,0.00,,,0.00,524,weatherlink.com 1.10,2013-12-11 17:00:00,
2013-12-11 12:30:00,40.6,13.0,30.44,NW,307,4.0,8.0,33,0.00,,,0.00,517,weatherlink.com 1.10,2013-12-11 17:30:00,
2013-12-11 12:45:00,41.0,14.0,30.44,NW,307,2.0,8.0,33,0.00,,,0.00,510,weatherlink.com 1.10,2013-12-11 17:45:00,
2013-12-11 13:00:00,41.1,13.0,30.43,WNW,285,2.0,6.0,32,0.00,,,0.00,499,weatherlink.com 1.10,2013-12-11 18:00:00,
2013-12-11 13:15:00,41.0,12.0,30.43,WNW,294,0.0,4.0,31,0.00,,,0.00,478,weatherlink.com 1.10,2013-12-11 18:15:00,
2013-12-11 13:30:00,41.7,12.0,30.42,South,178,0.0,6.0,30,0.00,,,0.00,425,weatherlink.com 1.10,2013-12-11 18:30:00,
2013-12-11 13:45:00,42.1,8.0,30.41,North,351,4.0,9.0,25,0.00,,,0.00,28,weatherlink.com 1.10,2013-12-11 18:45:00,
2013-12-11 14:00:00,42.7,7.0,30.41,NW,306,5.0,14.0,23,0.00,,,0.00,30,weatherlink.com 1.10,2013-12-11 19:00:00,
2013-12-11 14:15:00,42.7,7.0,30.41,WSW,250,7.0,12.0,23,0.00,,,0.00,32,weatherlink.com 1.10,2013-12-11 19:15:00,
2013-12-11 14:30:00,42.7,7.0,30.41,NNE,20,9.0,12.0,23,0.00,,,0.00,32,weatherlink.com 1.10,2013-12-11 19:30:00,
2013-12-11 14:45:00,42.7,8.0,30.40,NW,310,7.0,9.0,24,0.00,,,0.00,30,weatherlink.com 1.10,2013-12-11 19:45:00,
2013-12-11 15:00:00,42.4,9.0,30.40,NW,306,5.0,15.0,25,0.00,,,0.00,28,weatherlink.com 1.10,2013-12-11 20:00:00,
2013-12-11 15:15:00,42.3,9.0,30.40,WNW,291,3.0,11.0,25,0.00,,,0.00,32,weatherlink.com 1.10,2013-12-11 20:15:00,
2013-12-11 15:30:00,42.2,8.0,30.39,North,351,5.0,12.0,24,0.00,,,0.00,40,weatherlink.com 1.10,2013-12-11 20:30:00,
2013-12-11 15:45:00,42.1,8.0,30.39,West,275,8.0,13.0,25,0.00,,,0.00,33,weatherlink.com 1.10,2013-12-11 20:45:00,
2013-12-11 16:00:00,41.8,6.0,30.40,West,275,6.0,12.0,23,0.00,,,0.00,30,weatherlink.com 1.10,2013-12-11 21:00:00,
2013-12-11 16:15:00,41.4,5.0,30.39,NNW,348,2.0,13.0,22,0.00,,,0.00,39,weatherlink.com 1.10,2013-12-11 21:15:00,
2013-12-11 16:30:00,41.1,5.0,30.39,SW,226,5.0,11.0,22,0.00,,,0.00,56,weatherlink.com 1.10,2013-12-11 21:30:00,
2013-12-11 16:45:00,40.9,6.0,30.39,West,270,11.0,14.0,23,0.00,,,0.00,30,weatherlink.com 1.10,2013-12-11 21:45:00,
2013-12-11 17:00:00,40.4,5.0,30.40,NW,315,5.0,13.0,23,0.00,,,0.00,12,weatherlink.com 1.10,2013-12-11 22:00:00,
2013-12-11 17:15:00,39.6,5.0,30.39,NW,314,4.0,11.0,24,0.00,,,0.00,0,weatherlink.com 1.10,2013-12-11 22:15:00,
2013-12-11 17:30:00,39.1,6.0,30.39,NNW,327,1.0,19.0,25,0.00,,,0.00,0,weatherlink.com 1.10,2013-12-11 22:30:00,
2013-12-11 17:45:00,38.6,6.0,30.39,NW,304,6.0,11.0,26,0.00,,,0.00,0,weatherlink.com 1.10,2013-12-11 22:45:00,
2013-12-11 18:00:00,38.2,7.0,30.39,NNW,331,2.0,15.0,27,0.00,,,0.00,0,weatherlink.com 1.10,2013-12-11 23:00:00,
2013-12-11 18:15:00,37.8,7.0,30.39,West,269,11.0,13.0,28,0.00,,,0.00,0,weatherlink.com 1.10,2013-12-11 23:15:00,
2013-12-11 18:30:00,37.4,7.0,30.39,NW,311,7.0,15.0,28,0.00,,,0.00,0,weatherlink.com 1.10,2013-12-11 23:30:00,
2013-12-11 18:45:00,37.0,7.0,30.39,NW,314,7.0,14.0,29,0.00,,,0.00,0,weatherlink.com 1.10,2013-12-11 23:45:00,
2013-12-11 19:00:00,36.7,8.0,30.39,WNW,286,4.0,15.0,30,0.00,,,0.00,0,weatherlink.com 1.10,2013-12-12 00:00:00,
2013-12-11 19:15:00,36.4,8.0,30.39,WNW,300,3.0,23.0,30,0.00,,,0.00,0,weatherlink.com 1.10,2013-12-12 00:15:00,
2013-12-11 19:30:00,36.2,8.0,30.39,NNW,328,12.0,17.0,31,0.00,,,0.00,0,weatherlink.com 1.10,2013-12-12 00:30:00,
2013-12-11 19:45:00,35.8,8.0,30.39,West,264,5.0,14.0,32,0.00,,,0.00,0,weatherlink.com 1.10,2013-12-12 00:45:00,
2013-12-11 20:00:00,35.2,9.0,30.39,NW,304,5.0,17.0,34,0.00,,,0.00,0,weatherlink.com 1.10,2013-12-12 01:00:00,
2013-12-11 20:15:00,34.9,10.0,30.39,NW,304,4.0,15.0,36,0.00,,,0.00,0,weatherlink.com 1.10,2013-12-12 01:15:00,
2013-12-11 20:30:00,34.5,11.0,30.38,NNW,338,3.0,15.0,38,0.00,,,0.00,0,weatherlink.com 1.10,2013-12-12 01:30:00,
2013-12-11 20:45:00,34.2,11.0,30.38,NW,304,5.0,12.0,38,0.00,,,0.00,0,weatherlink.com 1.10,2013-12-12 01:45:00,
2013-12-11 21:00:00,33.8,12.0,30.38,NW,316,6.0,14.0,41,0.00,,,0.00,0,weatherlink.com 1.10,2013-12-12 02:00:00,
2013-12-11 21:15:00,33.3,13.0,30.38,NNW,344,4.0,13.0,43,0.00,,,0.00,0,weatherlink.com 1.10,2013-12-12 02:15:00,
2013-12-11 21:30:00,33.0,13.0,30.38,NW,305,8.0,12.0,44,0.00,,,0.00,0,weatherlink.com 1.10,2013-12-12 02:30:00,
2013-12-11 21:45:00,32.6,14.0,30.37,NNW,328,8.0,15.0,46,0.00,,,0.00,0,weatherlink.com 1.10,2013-12-12 02:45:00,
2013-12-11 22:00:00,32.3,14.0,30.37,NW,309,9.0,12.0,48,0.00,,,0.00,0,weatherlink.com 1.10,2013-12-12 03:00:00,
2013-12-11 22:30:00,31.6,16.0,30.37,NW,304,3.0,12.0,52,0.00,,,0.00,0,weatherlink.com 1.10,2013-12-12 03:30:00,
2013-12-11 22:45:00,31.5,16.0,30.36,WNW,292,3.0,13.0,53,0.00,,,0.00,0,weatherlink.com 1.10,2013-12-12 03:45:00,
2013-12-11 23:00:00,30.9,16.0,30.36,NW,316,3.0,12.0,55,0.00,,,0.00,0,weatherlink.com 1.10,2013-12-12 04:00:00,
2013-12-11 23:16:00,30.6,16.0,30.35,NW,317,3.0,9.0,56,0.00,,,0.00,0,weatherlink.com 1.10,2013-12-12 04:16:00,
2013-12-11 23:31:00,30.3,17.0,30.35,WNW,296,5.0,9.0,58,0.00,,,0.00,0,weatherlink.com 1.10,2013-12-12 04:31:00,
2013-12-11 23:46:00,30.0,18.0,30.34,WNW,302,3.0,12.0,60,0.00,,,0.00,0,weatherlink.com 1.10,2013-12-12 04:46:00,